LVYJP SAZN-SAZY

Flight info

Callsign LVYJP
Flight time N/A
Altitude 8000
Route NEU W32 CHP
Aircraft C208/L-SDFGR/C

Departure

Time N/A
Airport Presidente Perón International Airport (SAZN)

Arrival

Time 2026-05-06 19:27
Airport Aviador C. Campos Airport (SAZY)
Time Latitude Longitude Altitude Speed Heading
2026-05-06 18:40 -39.18129 -68.74889 8003 ft 175 kts 244°
2026-05-06 18:41 -39.18669 -68.76288 8003 ft 174 kts 244°
2026-05-06 18:41 -39.19210 -68.77686 8002 ft 174 kts 244°
2026-05-06 18:41 -39.19746 -68.79080 8001 ft 173 kts 244°
2026-05-06 18:41 -39.20280 -68.80472 8001 ft 173 kts 244°
2026-05-06 18:42 -39.20816 -68.81868 8000 ft 173 kts 244°
2026-05-06 18:42 -39.21351 -68.83262 8000 ft 173 kts 244°
2026-05-06 18:42 -39.21885 -68.84656 7999 ft 173 kts 244°
2026-05-06 18:42 -39.22411 -68.86028 8000 ft 173 kts 244°
2026-05-06 18:43 -39.22944 -68.87421 7999 ft 173 kts 244°
2026-05-06 18:43 -39.23477 -68.88813 7999 ft 173 kts 244°
2026-05-06 18:43 -39.24011 -68.90209 7999 ft 173 kts 244°
2026-05-06 18:43 -39.24546 -68.91605 7999 ft 173 kts 244°
2026-05-06 18:44 -39.25080 -68.93004 7999 ft 173 kts 244°
2026-05-06 18:44 -39.25614 -68.94401 7998 ft 173 kts 244°
2026-05-06 18:44 -39.26140 -68.95779 7998 ft 173 kts 244°
2026-05-06 18:44 -39.26674 -68.97176 7999 ft 173 kts 244°
2026-05-06 18:45 -39.27207 -68.98575 7998 ft 174 kts 245°
2026-05-06 18:45 -39.27741 -68.99975 7998 ft 173 kts 245°
2026-05-06 18:45 -39.28274 -69.01370 7997 ft 173 kts 244°
2026-05-06 18:45 -39.28626 -69.02294 7998 ft 173 kts 245°
2026-05-06 18:46 -39.29337 -69.04163 7997 ft 173 kts 245°
2026-05-06 18:46 -39.29869 -69.05559 7997 ft 173 kts 244°
2026-05-06 18:46 -39.30401 -69.06957 7996 ft 173 kts 245°
2026-05-06 18:46 -39.30932 -69.08355 7997 ft 173 kts 245°
2026-05-06 18:47 -39.31457 -69.09734 7996 ft 173 kts 245°
2026-05-06 18:47 -39.31987 -69.11131 7997 ft 173 kts 245°
2026-05-06 18:47 -39.32518 -69.12526 7996 ft 173 kts 245°
2026-05-06 18:47 -39.33050 -69.13927 7997 ft 173 kts 245°
2026-05-06 18:48 -39.33408 -69.14871 7997 ft 174 kts 245°
2026-05-06 18:48 -39.33933 -69.16255 7997 ft 174 kts 245°
2026-05-06 18:48 -39.34464 -69.17654 7996 ft 173 kts 245°
2026-05-06 18:48 -39.34994 -69.19057 7997 ft 173 kts 245°
2026-05-06 18:49 -39.35526 -69.20459 7996 ft 173 kts 245°
2026-05-06 18:49 -39.36055 -69.21857 7996 ft 173 kts 245°
2026-05-06 18:49 -39.36585 -69.23256 7996 ft 173 kts 245°
2026-05-06 18:49 -39.37115 -69.24658 7996 ft 173 kts 245°
2026-05-06 18:50 -39.37645 -69.26058 7995 ft 173 kts 245°
2026-05-06 18:50 -39.38166 -69.27440 7996 ft 173 kts 245°
2026-05-06 18:50 -39.38696 -69.28843 7995 ft 173 kts 245°
2026-05-06 18:50 -39.39225 -69.30242 7994 ft 173 kts 245°
2026-05-06 18:51 -39.39755 -69.31646 7995 ft 173 kts 245°
2026-05-06 18:51 -39.40277 -69.33031 7995 ft 173 kts 245°
2026-05-06 18:51 -39.40807 -69.34438 7995 ft 174 kts 245°
2026-05-06 18:51 -39.41338 -69.35845 7995 ft 174 kts 245°
2026-05-06 18:52 -39.41868 -69.37251 7995 ft 174 kts 245°
2026-05-06 18:52 -39.42396 -69.38656 7994 ft 174 kts 245°
2026-05-06 18:52 -39.42925 -69.40060 7994 ft 173 kts 245°
2026-05-06 18:52 -39.43453 -69.41464 7994 ft 173 kts 245°
2026-05-06 18:53 -39.43973 -69.42848 7993 ft 173 kts 245°
2026-05-06 18:53 -39.44501 -69.44253 7993 ft 173 kts 245°
2026-05-06 18:53 -39.45029 -69.45658 7995 ft 173 kts 245°
2026-05-06 18:53 -39.45556 -69.47059 7994 ft 173 kts 245°
2026-05-06 18:54 -39.46082 -69.48463 7995 ft 173 kts 245°
2026-05-06 18:54 -39.46579 -69.49787 7994 ft 173 kts 245°
2026-05-06 18:54 -39.47104 -69.51190 7994 ft 173 kts 245°
2026-05-06 18:54 -39.47632 -69.52597 7993 ft 173 kts 245°
2026-05-06 18:55 -39.48151 -69.53982 7994 ft 173 kts 245°
2026-05-06 18:55 -39.48677 -69.55387 7994 ft 173 kts 245°
2026-05-06 18:55 -39.49203 -69.56793 7995 ft 173 kts 245°
2026-05-06 18:55 -39.49729 -69.58200 7995 ft 173 kts 245°
2026-05-06 18:56 -39.50254 -69.59606 7995 ft 173 kts 245°
2026-05-06 18:56 -39.50387 -69.59962 7995 ft 173 kts 245°
2026-05-06 18:56 -39.50690 -69.60784 7995 ft 175 kts 245°
2026-05-06 18:56 -39.51216 -69.62219 7997 ft 177 kts 245°
2026-05-06 18:57 -39.51760 -69.63656 7999 ft 178 kts 244°
2026-05-06 18:57 -39.52305 -69.65099 8000 ft 179 kts 245°
2026-05-06 18:57 -39.52847 -69.66546 8001 ft 179 kts 245°
2026-05-06 18:57 -39.53390 -69.68000 8002 ft 179 kts 245°
2026-05-06 18:58 -39.53925 -69.69435 8003 ft 179 kts 245°
2026-05-06 18:58 -39.54469 -69.70893 8002 ft 180 kts 245°
2026-05-06 18:58 -39.55012 -69.72352 8003 ft 180 kts 245°
2026-05-06 18:58 -39.55565 -69.73806 8002 ft 180 kts 244°
2026-05-06 18:59 -39.56114 -69.75267 8002 ft 180 kts 245°
2026-05-06 18:59 -39.56648 -69.76730 8003 ft 180 kts 245°
2026-05-06 18:59 -39.57185 -69.78192 8001 ft 180 kts 245°
2026-05-06 18:59 -39.57724 -69.79648 8000 ft 179 kts 245°
2026-05-06 19:00 -39.58265 -69.81107 8000 ft 179 kts 245°
2026-05-06 19:00 -39.58807 -69.82567 8000 ft 180 kts 245°
2026-05-06 19:00 -39.59349 -69.84029 8000 ft 180 kts 245°
2026-05-06 19:00 -39.59884 -69.85473 8000 ft 179 kts 245°
2026-05-06 19:01 -39.60425 -69.86934 8000 ft 179 kts 245°
2026-05-06 19:01 -39.60965 -69.88392 8000 ft 179 kts 245°
2026-05-06 19:01 -39.61506 -69.89853 7999 ft 179 kts 245°
2026-05-06 19:01 -39.62046 -69.91314 7998 ft 179 kts 245°
2026-05-06 19:02 -39.62585 -69.92772 7999 ft 179 kts 245°
2026-05-06 19:02 -39.63125 -69.94232 7998 ft 179 kts 245°
2026-05-06 19:02 -39.63657 -69.95671 7998 ft 179 kts 245°
2026-05-06 19:02 -39.64195 -69.97131 7999 ft 180 kts 245°
2026-05-06 19:03 -39.64735 -69.98596 7997 ft 179 kts 245°
2026-05-06 19:03 -39.65273 -70.00053 7998 ft 179 kts 245°
2026-05-06 19:03 -39.65813 -70.01518 7997 ft 179 kts 245°
2026-05-06 19:03 -39.66351 -70.02978 7997 ft 179 kts 245°
2026-05-06 19:04 -39.66888 -70.04438 7995 ft 179 kts 245°
2026-05-06 19:04 -39.67426 -70.05899 7996 ft 179 kts 245°
2026-05-06 19:04 -39.67964 -70.07361 7995 ft 179 kts 245°
2026-05-06 19:04 -39.68501 -70.08821 7996 ft 179 kts 245°
2026-05-06 19:05 -39.69039 -70.10284 7995 ft 179 kts 245°
2026-05-06 19:05 -39.69576 -70.11747 7995 ft 179 kts 245°
2026-05-06 19:05 -39.70106 -70.13191 7995 ft 179 kts 245°
2026-05-06 19:05 -39.70644 -70.14657 7994 ft 179 kts 245°
2026-05-06 19:06 -39.71180 -70.16118 7995 ft 179 kts 245°
2026-05-06 19:06 -39.71714 -70.17577 7997 ft 179 kts 245°
2026-05-06 19:06 -39.72250 -70.19040 7997 ft 179 kts 245°
2026-05-06 19:06 -39.72785 -70.20500 7997 ft 179 kts 245°
2026-05-06 19:07 -39.73323 -70.21969 7996 ft 180 kts 245°
2026-05-06 19:07 -39.73861 -70.23438 7997 ft 180 kts 245°
2026-05-06 19:07 -39.74390 -70.24886 7997 ft 180 kts 245°
2026-05-06 19:07 -39.74927 -70.26354 7998 ft 180 kts 245°
2026-05-06 19:08 -39.75464 -70.27824 7999 ft 180 kts 245°
2026-05-06 19:08 -39.76003 -70.29301 7998 ft 181 kts 245°
2026-05-06 19:08 -39.76541 -70.30774 7998 ft 181 kts 245°
2026-05-06 19:08 -39.77079 -70.32249 7997 ft 180 kts 245°
2026-05-06 19:09 -39.77616 -70.33721 7997 ft 180 kts 245°
2026-05-06 19:09 -39.78152 -70.35193 7997 ft 180 kts 245°
2026-05-06 19:09 -39.78689 -70.36667 7996 ft 180 kts 245°
2026-05-06 19:09 -39.79224 -70.38137 7996 ft 180 kts 245°
2026-05-06 19:10 -39.79760 -70.39611 7994 ft 180 kts 245°
2026-05-06 19:10 -39.80294 -70.41078 7995 ft 180 kts 245°
2026-05-06 19:10 -39.80821 -70.42528 7994 ft 179 kts 245°
2026-05-06 19:10 -39.81355 -70.43995 7993 ft 179 kts 245°
2026-05-06 19:11 -39.81886 -70.45462 7995 ft 179 kts 245°
2026-05-06 19:11 -39.82418 -70.46927 7994 ft 179 kts 245°
2026-05-06 19:11 -39.82954 -70.48405 7992 ft 180 kts 245°
2026-05-06 19:11 -39.83474 -70.49838 7997 ft 179 kts 245°
2026-05-06 19:12 -39.84020 -70.51342 7998 ft 180 kts 245°
2026-05-06 19:12 -39.84552 -70.52811 7997 ft 180 kts 245°
2026-05-06 19:12 -39.85086 -70.54285 8000 ft 180 kts 245°
2026-05-06 19:12 -39.85621 -70.55761 7997 ft 180 kts 245°
2026-05-06 19:13 -39.86149 -70.57219 7998 ft 180 kts 245°
2026-05-06 19:13 -39.86682 -70.58694 7997 ft 180 kts 245°
2026-05-06 19:13 -39.87212 -70.60163 7997 ft 179 kts 245°
2026-05-06 19:13 -39.87746 -70.61637 7996 ft 180 kts 245°
2026-05-06 19:14 -39.88279 -70.63112 7996 ft 180 kts 245°
2026-05-06 19:14 -39.88810 -70.64585 7997 ft 180 kts 245°
2026-05-06 19:14 -39.89343 -70.66062 7997 ft 180 kts 245°
2026-05-06 19:14 -39.89876 -70.67538 7996 ft 180 kts 245°
2026-05-06 19:15 -39.90408 -70.69014 7996 ft 180 kts 245°
2026-05-06 19:15 -39.90934 -70.70473 7996 ft 180 kts 245°
2026-05-06 19:15 -39.91472 -70.71967 7996 ft 180 kts 245°
2026-05-06 19:15 -39.91994 -70.73420 7995 ft 180 kts 245°
2026-05-06 19:16 -39.92525 -70.74896 7995 ft 180 kts 245°
2026-05-06 19:16 -39.93055 -70.76370 7995 ft 180 kts 245°
2026-05-06 19:16 -39.93585 -70.77845 7995 ft 180 kts 245°
2026-05-06 19:16 -39.94118 -70.79320 7997 ft 180 kts 245°
2026-05-06 19:17 -39.94655 -70.80796 7996 ft 180 kts 245°
2026-05-06 19:17 -39.95188 -70.82282 7997 ft 181 kts 246°
2026-05-06 19:17 -39.95719 -70.83774 7996 ft 181 kts 246°
2026-05-06 19:17 -39.96250 -70.85263 7994 ft 180 kts 246°
2026-05-06 19:18 -39.96769 -70.86723 7993 ft 180 kts 245°
2026-05-06 19:18 -39.97297 -70.88195 8004 ft 179 kts 246°
2026-05-06 19:18 -39.97824 -70.89667 7997 ft 179 kts 246°
2026-05-06 19:18 -39.98350 -70.91137 8001 ft 179 kts 245°
2026-05-06 19:19 -39.98879 -70.92616 8000 ft 180 kts 246°
2026-05-06 19:19 -39.99409 -70.94101 7999 ft 180 kts 245°
2026-05-06 19:19 -39.99940 -70.95580 7976 ft 181 kts 245°
2026-05-06 19:19 -40.00493 -70.97120 7658 ft 193 kts 245°
2026-05-06 19:20 -40.01063 -70.98711 7340 ft 194 kts 245°
2026-05-06 19:20 -40.01631 -71.00303 7017 ft 191 kts 246°
2026-05-06 19:20 -40.02164 -71.01816 6682 ft 176 kts 246°
2026-05-06 19:20 -40.02665 -71.03234 6347 ft 169 kts 246°
2026-05-06 19:21 -40.03154 -71.04607 6015 ft 165 kts 246°
2026-05-06 19:21 -40.03636 -71.05961 5681 ft 164 kts 246°
2026-05-06 19:21 -40.04087 -71.07298 5486 ft 157 kts 250°
2026-05-06 19:21 -40.04401 -71.08609 5453 ft 146 kts 256°
2026-05-06 19:22 -40.04657 -71.09910 5145 ft 155 kts 258°
2026-05-06 19:22 -40.04811 -71.11201 5169 ft 146 kts 261°
2026-05-06 19:22 -40.04969 -71.12504 5133 ft 144 kts 261°
2026-05-06 19:22 -40.05159 -71.13785 5021 ft 146 kts 257°
2026-05-06 19:23 -40.05401 -71.15062 4923 ft 146 kts 256°
2026-05-06 19:23 -40.05669 -71.16339 4830 ft 144 kts 253°
2026-05-06 19:23 -40.05980 -71.17596 4693 ft 146 kts 252°
2026-05-06 19:23 -40.06316 -71.18849 4597 ft 146 kts 250°
2026-05-06 19:24 -40.06716 -71.20064 4551 ft 143 kts 246°
2026-05-06 19:24 -40.07170 -71.21190 4487 ft 142 kts 235°
2026-05-06 19:24 -40.07939 -71.21863 4392 ft 127 kts 198°
2026-05-06 19:24 -40.08814 -71.21817 4044 ft 126 kts 168°
2026-05-06 19:25 -40.09516 -71.21201 3826 ft 121 kts 125°
2026-05-06 19:25 -40.09572 -71.20152 3563 ft 116 kts 66°
2026-05-06 19:25 -40.09259 -71.19252 3332 ft 102 kts 63°
2026-05-06 19:25 -40.08994 -71.18455 3216 ft 88 kts 68°
2026-05-06 19:26 -40.08767 -71.17782 3114 ft 78 kts 68°
2026-05-06 19:26 -40.08560 -71.17131 3083 ft 77 kts 70°
2026-05-06 19:26 -40.08358 -71.16498 2999 ft 77 kts 68°
2026-05-06 19:26 -40.08170 -71.15843 2851 ft 76 kts 70°
2026-05-06 19:27 -40.07976 -71.15200 2680 ft 73 kts 68°
2026-05-06 19:27 -40.07805 -71.14639 2599 ft 58 kts 68°
2026-05-06 19:27 -40.07671 -71.14197 2599 ft 49 kts 68°
2026-05-06 19:27 -40.07579 -71.13887 2597 ft 18 kts 88°
2026-05-06 19:28 -40.07689 -71.13906 2597 ft 28 kts 211°
2026-05-06 19:28 -40.07801 -71.14005 2597 ft 7 kts 213°
2026-05-06 19:28 -40.07899 -71.14086 2591 ft 25 kts 218°
2026-05-06 19:28 -40.07964 -71.14146 2597 ft 6 kts 214°
2026-05-06 19:29 -40.08000 -71.14177 2597 ft 8 kts 212°
2026-05-06 19:29 -40.08060 -71.14227 2597 ft 12 kts 217°
2026-05-06 19:29 -40.08091 -71.14272 2589 ft 3 kts 116°
2026-05-06 19:29 -40.08094 -71.14266 2597 ft 1 kts 115°
2026-05-06 19:30 -40.08094 -71.14265 2597 ft 0 kts 115°
2026-05-06 20:07 -40.08094 -71.14266 2597 ft 0 kts 115°